Location: Boca do Mato
(22.9085°S, 43.2930°W)
Time: 11:07:00
(UTC+00:00)

Cosmos 2266 Rocket - Pass Details

Date: 03 November 2020
Orbit: 935 x 1007 km, 82.9° (Epoch: 28 November)

Event Time Altitude Azimuth Distance (km) Brightness Sun altitude
Rises 07:10:26 0° 177° (S) 3,651 7.4 -13.0°
Reaches altitude 10° 07:13:03 10° 172° (S) 2,691 6.7 -12.4°
Maximum altitude 07:18:59 51° 97° (E) 1,177 4.9 -11.2°
Drops below altitude 10° 07:24:48 10° 22° (NNE) 2,639 6.3 -9.9°
Sets 07:27:20 0° 16° (NNE) 3,574 6.9 -9.4°
